SCP
0 0 0 0 0 0 0 0 0 0 0 0 0 0 0 0 0 0 0 0 0 0 0 0 0 0 0 0 0 0 0 0 -0 -0 -0 -0 -0 0 0 0 0 0 0
0 0 0 0 0 0 0 0 0 0 0 0 0 0 0 0 0 0 0 0 0 0 0 0 0 0 0 0 0 0 0 0 0 -0 -0 -0 -0 -0 -0 0 0 0 0
0 0 0 0 0 0 0 0 0 0 0 0 0 0 0 0 0 0 0 0 0 0 0 0 0 0 0 0 0 0 0 0 0 0 -0 -0 -0 -0 -0 -0 -0 0 0
0 0 0 0 0 0 0 0 0 0 0 0 0 0 0 0 0 0 0 0 0 0 0 0 0 0 0 0 0 0 0 0 0 0 0 0 -0 -0 -0 -0 0 0 0
0 0 0 0 0 0 0 0 0 0 0 0 0 0 0 0 0 0 0 0 0 0 0 0 0 0 0 0 0 0 0 0 0 0 0 0 0 -0 -0 0 0 0 0
0 0 0 0 0 0 0 0 0 0 0 0 0 0 0 0 0 0 0 0 0 0 0 0 0 0 0 0 0 0 0 0 0 0 0 0 0 0 0 0 0 0 0
0 0 0 0 0 0 0 0 0 0 0 0 0 0 0 0 0 0 0 0 0 0 0 0 0 0 0 0 0 0 0 0 0 0 0 0 0 0 0 0 0 0 0
0 0 0 0 0 0 0 0 0 0 0 0 0 0 0 0 0 0 0 0 0 0 0 0 0 0 0 0 0 0 0 0 0 0 0 0 0 0 0 0 0 0 0
0 0 0 0 0 0 0 0 0 0 0 0 0 0 0 0 0 0 0 0 0 0 0 0 0 0 0 0 0 -0 -0 0 0 0 0 0 0 0 0 0 0 0 0
0 0 0 0 0 0 0 0 0 0 0 0 0 0 0 0 0 0 0 0 0 0 0 0 0 0 0 0 0 0 0 0 0 0 0 0 0 0 0 0 0 0 0
0 0 0 0 0 0 0 0 0 0 0 0 0 0 0 0 0 0 0 0 0 0 0 0 0 0 0 0 0 0 0 0 0 0 0 0 0 0 0 0 -0 0 0
0 0 0 0 0 0 0 0 0 0 0 0 0 0 0 0 0 0 0 0 0 0 0 0 0 0 0 0 0 0 0 0 0 0 0 0 0 0 0 0 -0 -0 -0
0 0 0 0 0 0 0 0 0 0 0 0 0 0 0 0 0 0 0 0 0 0 0 0 0 0 0 0 0 0 0 0 0 0 0 0 -0 -0 0 0 -0 -0 0
0 0 0 0 0 0 0 0 0 0 0 0 0 0 0 0 0 0 0 0 0 0 0 0 0 0 -0 -0 -0 -0 0 0 0 0 0 0 0 0 -0 -0 -0 -0 0
0 0 0 0 0 0 0 0 0 0 0 0 0 0 0 0 0 0 0 0 0 0 0 0 0 -0 0 0 0 0 -0 0 0 0 0 0 0 0 -0 -0 -0 0 0
0 0 0 0 0 0 0 0 0 0 0 0 0 0 0 0 0 0 0 0 0 0 0 0 0 -0 0 0 0 0 -0 0 0 0 0 0 0 0 -0 -0 0 0 0
0 0 0 0 0 0 0 0 0 0 0 0 0 0 0 0 0 0 0 0 0 0 0 0 0 -0 0 0 0 0 0 0 0 0 0 0 0 0 -0 0 0 0 0
0 0 0 0 0 0 0 0 0 0 0 0 0 0 0 0 0 0 0 0 0 0 0 0 0 0 0 0 0 -0 0 0 0 0 0 0 0 0 0 -0 0 0 0
0 0 0 0 0 0 0 0 0 0 0 0 0 0 0 0 0 0 0 0 0 0 0 0 0 0 0 0 0 -0 0 0 0 0 0 0 0 0 0 0 0 0 0
0 0 0 0 0 0 0 0 0 0 0 0 0 0 0 0 0 0 0 0 0 0 0 0 0 0 0 0 0 0 0 0 0 0 0 0 0 0 0 0 0 0 0
0 0 0 0 0 0 0 0 0 0 0 0 0 0 0 0 0 0 0 0 0 0 0 0 0 0 0 0 0 0 0 0 0 0 0 0 0 0 0 0 0 0 0
0 0 0 0 0 0 0 0 0 0 0 0 0 0 0 0 0 0 0 0 0 0 0 0 0 0 0 0 0 0 0 0 0 0 0 0 0 0 0 0 0 0 0
0 0 0 0 0 0 0 0 0 0 0 0 0 0 0 0 0 0 0 0 0 0 0 0 0 0 0 0 0 0 0 0 0 0 0 0 0 0 0 0 0 0 0
0 0 0 0 0 0 0 0 0 0 0 0 0 0 0 0 0 0 0 0 0 0 0 0 0 0 0 0 0 0 0 0 0 0 0 0 0 0 0 0 0 0 0
0 0 0 0 0 0 0 0 0 0 0 0 0 0 0 0 0 0 0 0 0 0 0 0 0 0 0 0 0 0 0 0 0 0 0 0 0 0 0 0 0 0 0
0 0 0 0 0 0 0 0 0 0 0 0 0 0 0 0 0 0 0 0 0 0 0 0 0 0 0 0 0 0 0 0 0 0 0 0 0 0 0 0 0 0 0
Wind_Speed
4 3 2 1 2 4 5 5 6 6 6 5 6 6 6 6 5 5 7 8 8 9 8 7 7 7 6 8 9 8 10 8 8 10 11 10 10 9 4 5 6 6 8
4 4 3 2 2 4 5 6 6 7 6 5 5 5 6 4 5 6 7 8 9 9 10 8 8 8 7 7 8 9 7 8 6 7 10 8 6 3 8 7 6 5 7
7 5 3 2 2 4 5 6 7 7 7 7 5 7 4 4 4 6 5 7 10 10 9 9 9 9 7 7 7 8 8 9 7 4 6 7 7 11 5 5 5 6 7
5 3 2 1 2 4 5 5 6 7 7 6 6 8 8 8 8 6 7 9 9 10 10 9 10 9 8 8 8 7 7 9 9 7 6 7 8 8 8 4 4 7 8
5 3 1 2 3 4 4 5 6 6 7 7 7 7 6 6 7 8 8 8 7 9 11 11 9 9 9 9 9 9 8 7 8 8 8 9 9 10 10 13 8 7 6
5 3 3 3 3 4 4 5 7 7 7 8 7 7 8 9 11 11 9 8 7 7 8 12 9 10 10 10 10 9 8 8 9 8 7 8 8 7 8 11 13 11 7
5 2 2 2 3 5 6 6 7 8 8 8 8 8 8 7 9 11 11 11 9 9 10 11 9 10 11 12 11 9 9 8 9 8 8 8 9 9 9 11 11 12 9
4 3 2 1 3 5 6 7 7 8 8 8 8 7 7 6 7 9 10 10 9 10 12 12 13 14 14 14 11 10 10 8 7 9 10 8 9 9 9 10 10 11 8
6 5 2 0 3 5 5 6 7 8 8 8 8 7 7 8 9 10 9 8 9 11 13 15 15 16 16 15 13 10 10 9 9 9 10 9 9 9 9 9 9 9 11
6 5 2 1 2 4 5 6 7 7 7 8 7 10 9 9 9 9 10 11 12 12 14 15 16 17 16 15 11 9 9 8 9 8 9 9 8 8 8 8 8 8 9
7 5 2 1 3 4 5 6 7 7 7 7 7 8 8 9 9 9 10 11 11 13 14 16 17 18 17 13 9 8 8 8 8 8 8 9 8 6 6 6 6 6 6
7 5 3 2 3 5 6 6 6 6 7 6 7 8 9 9 9 10 11 11 12 12 13 15 16 16 16 13 10 9 8 7 8 8 7 7 6 7 6 6 6 5 6
7 4 2 1 3 5 5 6 6 6 6 6 7 8 8 9 10 10 11 11 11 12 13 14 15 16 14 11 10 10 10 10 10 10 10 9 8 7 6 7 5 5 7
7 5 2 2 3 4 5 6 6 6 6 6 7 8 8 9 9 10 11 11 11 11 12 13 14 14 13 8 7 9 10 10 11 11 11 11 10 9 7 8 7 7 8
6 6 4 3 3 4 5 5 5 6 6 6 7 8 8 9 9 10 10 10 11 12 12 13 14 14 12 6 5 8 9 9 10 11 11 12 17 20 13 11 9 9 7
7 6 5 4 4 4 4 5 5 5 5 6 7 8 9 9 9 10 10 10 10 11 11 11 13 14 13 19 21 13 8 8 9 10 11 12 12 19 18 21 19 17 12
7 7 6 5 4 4 3 4 5 5 5 6 6 7 8 9 9 10 10 10 9 10 11 11 11 13 17 23 21 21 9 8 8 9 10 12 14 18 6 13 17 15 19
9 8 6 5 4 3 2 3 4 4 5 6 6 7 7 8 9 9 9 9 7 8 7 9 11 11 17 24 19 19 8 6 8 9 10 11 12 15 12 9 10 8 8
8 7 6 5 4 3 2 2 3 4 5 5 6 6 6 7 7 8 9 7 7 6 7 8 9 11 15 24 20 15 5 6 8 9 11 14 11 22 23 13 12 11 8
7 7 6 5 4 3 2 2 3 4 5 5 6 6 6 6 7 7 7 6 7 7 9 10 9 10 11 21 23 15 5 7 8 8 11 18 20 23 23 13 12 13 10
7 7 6 6 5 4 3 2 3 4 5 5 5 6 6 6 6 6 5 7 8 9 8 9 9 8 11 17 22 20 5 6 9 9 9 11 24 23 23 19 12 17 14
8 7 7 6 5 4 4 3 4 5 5 5 5 6 6 6 6 6 7 7 7 8 8 7 8 7 9 13 16 19 17 13 8 8 8 11 23 22 22 17 20 23 17
9 7 7 6 5 5 5 4 4 4 4 5 5 6 7 6 6 6 7 7 6 6 7 6 7 8 8 10 17 15 17 18 8 7 16 19 22 19 15 21 24 18 11
10 8 8 7 6 5 5 5 4 4 4 5 5 5 6 6 6 6 5 6 7 7 7 6 7 8 8 8 6 3 5 10 8 6 11 16 18 15 16 16 14 11 11
10 9 9 9 8 6 5 5 4 3 4 5 5 5 5 6 6 6 5 7 6 9 10 6 6 8 9 12 17 10 6 4 5 5 5 6 7 9 9 9 10 10 10
11 9 9 9 7 6 6 5 4 4 4 4 4 4 4 5 5 6 8 12 12 16 17 16 15 11 15 21 18 16 14 14 14 7 4 5 6 7 8 9 9 9 10
Wind_Direction
199 178 160 137 310 315 332 334 341 337 342 343 341 331 330 322 318 318 323 320 320 322 317 315 317 314 313 315 314 317 316 319 323 317 314 296 274 272 292 301 300 315 341
198 216 209 219 297 320 336 341 342 334 338 335 322 311 313 308 312 316 311 313 320 319 322 318 315 309 307 309 311 314 311 319 331 317 317 314 307 345 320 294 296 327 336
207 221 222 241 310 336 337 338 331 330 331 330 325 326 308 304 319 321 308 318 319 317 312 310 310 307 302 302 303 300 310 314 311 298 300 306 315 324 277 283 316 333 322
197 203 211 308 352 339 331 327 328 329 328 330 332 336 342 333 327 320 316 319 316 315 315 313 309 305 304 299 297 312 302 301 305 303 273 281 293 297 308 306 314 308 315
197 191 138 41 14 345 329 329 333 330 327 329 327 324 317 305 313 317 316 315 316 316 318 318 310 306 305 297 292 295 288 290 289 291 290 285 279 270 285 298 308 308 295
184 144 86 46 356 335 335 345 343 330 326 326 322 317 312 314 323 328 325 326 322 316 312 316 308 304 301 296 293 287 282 284 280 280 278 281 283 286 287 289 300 303 301
166 143 70 10 335 343 355 350 339 327 323 322 317 313 311 314 320 326 327 327 325 323 315 310 304 302 296 294 291 287 284 277 273 270 273 274 274 279 280 282 290 295 299
158 143 116 8 338 356 353 340 328 322 321 320 319 312 318 324 323 321 321 318 317 314 308 310 307 302 297 295 290 287 281 276 273 278 274 272 271 272 272 276 287 295 296
162 149 136 47 6 355 338 327 321 320 317 319 321 325 334 328 323 320 316 313 312 313 317 312 309 307 303 297 289 280 277 277 277 274 272 271 272 272 271 271 273 283 295
159 151 153 41 4 341 322 321 318 312 310 317 327 342 331 324 322 321 318 317 314 315 316 317 317 317 317 312 299 284 277 277 279 276 275 277 276 276 275 273 271 270 278
166 164 168 55 354 331 322 317 314 311 313 319 323 326 323 323 323 321 319 318 317 320 322 324 326 328 330 329 322 310 293 286 286 288 290 293 296 301 303 297 292 291 292
157 160 145 42 339 322 315 313 311 311 313 319 325 325 323 323 323 322 321 321 322 324 327 330 332 336 341 344 346 341 338 328 324 324 320 318 326 325 322 318 312 309 299
156 157 128 352 309 305 306 308 308 309 314 324 327 324 323 324 323 322 322 325 326 327 332 336 338 340 341 353 7 9 8 4 360 357 353 342 336 341 338 333 332 316 312
164 161 168 252 281 291 296 303 306 313 327 332 327 325 323 324 322 323 325 328 330 333 336 337 337 339 336 343 14 16 13 8 5 4 359 347 347 348 343 344 346 329 319
177 176 187 227 260 282 295 302 308 320 329 331 332 328 325 323 325 328 329 333 338 340 335 337 339 340 338 345 46 27 10 3 360 357 353 344 355 353 2 355 356 345 332
183 183 193 214 238 266 290 304 312 319 327 329 327 325 329 330 332 331 335 338 338 335 335 337 338 341 340 4 32 38 12 0 357 351 347 341 344 350 0 358 359 356 347
178 182 193 210 226 246 273 291 304 315 326 326 324 326 326 331 333 336 337 336 331 331 333 332 336 338 335 1 31 30 20 359 353 349 347 344 343 345 339 352 355 350 352
175 180 187 201 213 227 262 286 308 324 325 324 323 321 324 325 327 332 333 327 321 326 325 323 331 335 338 353 27 31 17 355 347 343 342 338 334 330 4 355 343 340 346
168 175 184 191 194 212 253 294 316 323 324 322 319 316 316 319 324 330 326 319 319 318 322 323 327 332 332 344 10 34 3 3 346 345 348 344 337 344 5 3 346 344 352
152 165 175 181 191 205 221 267 304 312 312 310 309 308 312 318 315 318 315 314 316 320 330 328 325 322 321 336 353 24 16 7 357 349 346 343 355 358 2 5 351 350 357
155 164 173 187 196 194 195 242 280 287 293 301 306 310 314 312 309 316 311 316 322 326 320 319 319 313 322 333 339 358 23 17 1 354 345 341 359 4 3 6 360 359 3
159 168 178 194 198 190 189 234 263 276 294 304 309 311 310 311 321 317 309 312 314 315 311 309 315 318 316 325 329 348 1 14 12 353 341 351 6 8 6 7 8 6 3
170 174 182 192 201 196 193 227 254 284 302 308 309 308 308 307 308 304 302 308 307 307 307 309 317 318 317 318 327 341 355 2 15 360 0 6 10 9 4 7 11 7 359
177 177 182 194 205 204 207 223 255 281 294 299 301 304 306 307 310 309 305 304 303 304 302 309 315 313 311 309 311 305 334 357 7 7 358 5 6 11 8 7 6 2 1
178 183 192 201 204 200 213 226 240 264 283 291 293 302 307 305 308 311 303 305 296 315 335 325 313 318 316 322 345 357 353 350 5 16 360 356 357 2 2 2 4 3 2
176 186 196 202 201 198 213 224 228 238 264 286 296 297 300 307 312 312 317 325 333 336 342 343 343 329 330 341 352 354 359 358 4 19 351 352 355 357 358 358 357 359 2